Regional Weather Roundup
Issued by NWS Sioux Falls, SD

Home | Current Version | Previous Version | Graphics & Text | Print | Product List | Glossary Off
Versions: 1 2 3 4 5 6 7 8 9 10 11 12 13 14 15 16 17 18 19 20 21 22 23 24 25 26 27 28 29 30 31 32 33 34 35 36 37 38 39 40 41 42 43 44 45 46 47 48 49 50

000
ASUS43 KFSD 260402
RWRFSD

WEATHER ROUNDUP FOR SE SOUTH DAKOTA/SW MINNESOTA/NW IOWA
NATIONAL WEATHER SERVICE SIOUX FALLS SD
1100 PM CDT MON MAY 25 2015

NOTE: "FAIR" INDICATES FEW OR NO CLOUDS BELOW 12,000 FEET WITH NO
SIGNIFICANT WEATHER AND OR OBSTRUCTIONS TO VISIBILITY.


SDZ038>040-050-052>070-260500-
SOUTHEAST SOUTH DAKOTA

CITY           SKY/WX    TMP DP  RH WIND       PRES   REMARKS
BROOKINGS      PTCLDY    55  52  88 N8        29.84R
CHAMBERLAIN    NOT AVBL
HURON          MOCLDY    53  50  89 N5        29.84R
MADISON        FAIR      55  55 100 NE12      29.82R
MITCHELL       PTCLDY    57  53  86 N9        29.83R
SIOUX FALLS    FAIR      59  56  89 N6        29.80R
WINNER         CLOUDY    60  53  77 NE6       29.87R
YANKTON        CLOUDY    63  57  82 CALM      29.80R
$$

MNZ071-072-080-081-089-090-097-098-260500-
SOUTHWEST MINNESOTA

CITY           SKY/WX    TMP DP  RH WIND       PRES   REMARKS
FAIRMONT       CLOUDY    63  55  77 N5        29.80R
JACKSON        CLOUDY    63  59  88 N3        29.81R
LUVERNE        MOCLDY    63  57  82 N5        29.80R
MARSHALL       MOCLDY    57  52  82 NW12      29.80S
MONTEVIDEO     CLOUDY    57  55  94 N6        29.81S
REDWOOD FALLS  PTCLDY    58  55  90 W9        29.78R
TRACY          PTCLDY    57  55  94 NW6       29.82R
WINDOM         CLOUDY    61  55  82 NW7       29.81R
WORTHINGTON    MOCLDY    61  55  82 NE3       29.82R
$$

IAZ001>003-012>014-020>022-031-032-NEZ013-014-SDZ071-260500-
NORTHWEST IOWA

CITY           SKY/WX    TMP DP  RH WIND       PRES   REMARKS
DENISON        CLOUDY    64  59  82 S16G22    29.81R
ESTHERVILLE    CLOUDY    63  59  87 N3        29.80R
SIOUX CITY     CLOUDY    69  57  65 S10       29.78R
SPENCER        CLOUDY    65  60  84 N6        29.80R
$$

ABBREVIATIONS USED IN REMARKS
   TC - TEMPERATURE IN CELSIUS
  WCI - WIND CHILL INDEX
   HX - HEAT INDEX
  VSB - VISIBILITY




USA.gov is the U.S. government's official web portal to all federal, state and local government web resources and services.